Вернуться в каталог

ATLAS 5 CENTAUR DEB

LostHEO
NORAD 46867·DEBRIS·🇺🇸 United States

Запущен Oct 17, 2018 с Cape Canaveral Space Force Station

Loading…

Ближайшие Пролёты (ближайшие 24 часа)

TLE

УстаревшееSource: Space-Track

Эпоха: May 3, 2024, 03:15 UTC

1 46867U 18079DY  24124.13563215 -.00000135  00000-0  00000+0 0  9994
2 46867  12.5554  15.4104 4495580  30.1364 349.4653  2.33886264 28626

Отслеживайте ATLAS 5 CENTAUR DEB в реальном времени с AllMySat

Download on the App Store